Location: Newark
(49.1000°N, 0.4667°W)
Time: 15:10:24
(UTC+00:00)

PRISM - Visible Passes

Search period start: 14 July 2020 00:00
Search period end: 24 July 2020 00:00
Orbit: 566 x 586 km, 98.1° (Epoch: 13 July)

Date Brightness Start Highest point End Pass type
(mag) Time Alt. Az. Time Alt. Az. Time Alt. Az.
14 Jul ? 01:51:38 10° NNE 01:55:42 50° E 01:58:20 20° S visible
14 Jul ? 03:27:34 10° NNW 03:30:35 20° WNW 03:33:34 10° WSW visible
15 Jul ? 01:55:17 10° NNE 01:59:23 55° ESE 02:02:00 21° S visible
15 Jul ? 03:31:20 10° NNW 03:34:12 18° WNW 03:37:03 10° WSW visible
16 Jul ? 01:58:56 10° NNE 02:03:03 60° ESE 02:05:40 21° S visible
17 Jul ? 02:02:34 10° NNE 02:06:44 65° ESE 02:09:19 22° S visible
18 Jul ? 02:06:13 10° NNE 02:10:23 71° ESE 02:12:59 22° S visible
19 Jul ? 02:09:53 10° NNE 02:14:03 77° ESE 02:16:38 22° S visible
20 Jul ? 02:13:32 10° NNE 02:17:42 83° ESE 02:20:18 23° SSW visible
21 Jul ? 00:45:11 10° E 00:45:33 10° E 00:45:54 10° E visible
21 Jul ? 02:17:11 10° NNE 02:21:22 90° ESE 02:23:56 23° SSW visible
22 Jul ? 00:48:03 10° ENE 00:49:14 11° E 00:50:26 10° ESE visible
22 Jul ? 02:20:51 10° NNE 02:25:02 84° WNW 02:27:35 23° SSW visible
23 Jul ? 00:51:19 10° ENE 00:52:56 12° E 00:54:34 10° ESE visible
23 Jul ? 02:24:30 10° NNE 02:28:41 78° WNW 02:31:14 23° SSW visible
